Preview of NWS' New Version of Forecast
This preview is not operational and should not be used for support decisions.

Regional Weather Roundup (RWR)

Issued by National Weather Service (NWS)

                            
000
ASUS46 KSEW 241510
RWRWA 

WASHINGTON REGIONAL WEATHER ROUNDUP
NATIONAL WEATHER SERVICE SEATTLE WA
800 AM PDT MON JUN 24 2019

NOTE:"FAIR" INDICATES FEW OR NO CLOUDS BELOW 12,000 FEET WITH NO 
SIGNIFICANT WEATHER AND/OR OBSTRUCTIONS TO VISIBILITY.

WAZ507-509-555>559-241600-
SEATTLE, TACOMA, EVERETT, AND VICINITY
  
CITY           SKY/WX    TMP DP  RH WIND       PRES   REMARKS
EVERETT        CLOUDY    53  50  89 CALM      30.10R                  
BOEING FIELD   CLOUDY    56  48  74 S5        30.09S                  
RENTON         CLOUDY    56  49  77 CALM      30.09S                  
SEATAC AIRPORT CLOUDY    54  48  80 S5        30.09S                  
JBLM-MCCHORD   CLOUDY    54  53  97 CALM      30.09S                  
PUYALLUP       CLOUDY    55  50  82 CALM      30.09F                  
BREMERTON      CLOUDY    54  48  80 CALM      30.09S                  
JBLM-FT LEWIS  CLOUDY    53  53  99 SE3       30.09S                  
TACOMA NARROWS CLOUDY    52  48  86 CALM      30.09S                  
$$
 
WAZ001-503-506-510-514-515-241600-
NORTH INTERIOR
  
CITY           SKY/WX    TMP DP  RH WIND       PRES   REMARKS
BELLINGHAM     CLOUDY    56  48  74 S7        30.06S                  
FRIDAY HARBOR  PTSUNNY   54  48  80 CALM      30.07S                  
EASTSOUND      CLOUDY    55  50  82 S5        30.05S                  
PORT ANGELES   MOSUNNY   56  48  74 NW7       30.09S                  
EDIZ HOOK      FAIR      55  49  83 W9        30.08F                  
PORT TOWNSEND  CLOUDY    54  50  87 CALM      30.08S                  
NAS WHIDBEY    PTSUNNY   59  49  69 SW13      30.11F                  
ARLINGTON      CLOUDY    55  48  77 W5        30.10S                  
BURLINGTON     CLOUDY    57  50  77 S7        30.08F                  
$$
 
WAZ020-022-039-040-504-511-512-241600-
SOUTHWEST INTERIOR
  
CITY           SKY/WX    TMP DP  RH WIND       PRES   REMARKS
SHELTON        CLOUDY    54  48  80 CALM      30.07S                  
OLYMPIA        CLOUDY    53  47  79 CALM      30.10R                  
CHEHALIS       CLOUDY    50  48  93 SW3       30.10S                  
KELSO          CLOUDY    52  47  83 CALM      30.11S                  
VANCOUVER      SUNNY     56  47  71 CALM      30.10S                  
SCAPPOOSE, OR  PTSUNNY   54  48  80 SE3       30.09F                  
PORTLAND, OR   MOSUNNY   57  46  66 CALM      30.10F                  
$$
 
WAZ021-516-517-241600-
WASHINGTON COAST
  
CITY           SKY/WX    TMP DP  RH WIND       PRES   REMARKS
FORKS          CLOUDY    53  50  89 CALM      30.10S                  
HOQUIAM        SUNNY     54  53  97 N6        30.10S                  
ASTORIA, OR    CLOUDY    57  50  77 N7        30.10R                  
$$
 
WAZ019-023-024-040-567>569-241600-
CASCADE MOUNTAINS AND COLUMBIA GORGE
  
CITY           SKY/WX    TMP DP  RH WIND       PRES   REMARKS
STAMPEDE PASS  FOG       41  39  93 VRB5      30.04S VSB 1/4          
TROUTDALE, OR  SUNNY     56  47  71 CALM      30.10F                  
HOOD RIVER, OR SUNNY     54  45  71 NW13G18   30.05S                  
THE DALLES, OR SUNNY     59  43  55 W21       30.02F                  
$$

WAZ026-027-041>044-520-521-241600-
EAST SLOPES
  
CITY           SKY/WX    TMP DP  RH WIND       PRES   REMARKS
OMAK           SUNNY     64  39  39 N8        29.94S                  
WENATCHEE      SUNNY     59  37  44 W10G18    29.97S                  
ELLENSBURG     SUNNY     58  40  51 NW15G24   29.98S                  
YAKIMA         SUNNY     60  39  45 W8        29.99F                  
SUNNYSIDE ARPT SUNNY     58  44  61 CALM      29.99S                  
YAKIMA TC      FAIR      58  36  43 CALM      29.98S                  
$$

WAZ028-034-035-241600-
COLUMBIA BASIN
  
CITY           SKY/WX    TMP DP  RH WIND       PRES   REMARKS
EPHRATA        SUNNY     63  36  36 CALM      29.94S                  
MOSES LAKE     SUNNY     63  41  44 W8        29.95S                  
PASCO          SUNNY     63  42  46 S8        29.99S                  
RICHLAND ARPT  SUNNY     64  41  43 SW6       29.99                   
HERMISTON, OR  SUNNY     60  44  55 W13       30.00S                  
$$

WAZ036>038-241600-
NORTHEAST WASHINGTON
  
CITY           SKY/WX    TMP DP  RH WIND       PRES   REMARKS
SPOKANE GEIGER MOSUNNY   53  40  61 S10       29.96S                  
SPOKANE FELTS  MOSUNNY   55  42  61 SW13G20   29.97F                  
FAIRCHILD AFB  SUNNY     52  41  66 S10       29.95S                  
COEURDALENE,ID SUNNY     55  42  61 S10       29.98S                  
DEER PARK      MOSUNNY   53  42  66 S9        29.97R                  
$$

WAZ029>033-241600-
SOUTHEAST WASHINGTON
  
CITY           SKY/WX    TMP DP  RH WIND       PRES   REMARKS
PULLMAN        SUNNY     57  42  57 W14       30.00S                  
LEWISTON, ID   SUNNY     62  43  49 VRB3      29.98S                  
WALLA WALLA    SUNNY     58  43  57 S15       30.01S                  
PENDLETON, OR  SUNNY     58  41  53 W6        30.00F                  
$$